| time (UTC) | temp F | wind direction | speed MPH | gust MPH | rain 1hr in | rain 24hr in | rain mn in | humidity % | barometer mb |
| 20260504040034 | 61 | 146 | 2.0 | 5.0 | 0.00 | 0.00 | 0.00 | 68 | 1016.7 |
| 20260504034531 | 62 | 152 | 3.0 | 5.0 | 0.00 | 0.00 | 0.00 | 65 | 1016.7 |
| 20260504033033 | 63 | 184 | 3.0 | 5.0 | 0.00 | 0.00 | 0.00 | 63 | 1016.6 |
| 20260504031537 | 63 | 174 | 3.0 | 8.0 | 0.00 | 0.00 | 0.00 | 62 | 1016.5 |
| 20260504030041 | 64 | 200 | 3.0 | 6.0 | 0.00 | 0.00 | 0.00 | 62 | 1016.5 |
| 20260504024532 | 64 | 156 | 4.0 | 7.0 | 0.00 | 0.00 | 0.00 | 61 | 1016.3 |
| 20260504023034 | 63 | 154 | 4.0 | 5.0 | 0.00 | 0.00 | 0.00 | 62 | 1016.3 |
| 20260504021537 | 64 | 152 | 3.0 | 5.0 | 0.00 | 0.00 | 0.00 | 61 | 1016.1 |
| 20260504020035 | 64 | 156 | 3.0 | 4.0 | 0.00 | 0.00 | 0.00 | 60 | 1016.2 |
| 20260504014540 | 65 | 176 | 3.0 | 5.0 | 0.00 | 0.00 | 0.00 | 58 | 1016.1 |
| 20260504013041 | 65 | 148 | 3.0 | 4.0 | 0.00 | 0.00 | 0.00 | 57 | 1016.1 |
| 20260504011540 | 68 | 159 | 3.0 | 4.0 | 0.00 | 0.00 | 0.00 | 51 | 1016.1 |
| 20260504010033 | 70 | 148 | 3.0 | 5.0 | 0.00 | 0.00 | 0.00 | 47 | 1016.1 |
| 20260504004536 | 70 | 149 | 4.0 | 7.0 | 0.00 | 0.00 | 0.00 | 46 | 1016.0 |
| 20260504003035 | 71 | 168 | 4.0 | 8.0 | 0.00 | 0.00 | 0.00 | 46 | 1015.9 |
| 20260504001537 | 73 | 156 | 5.0 | 10.0 | 0.00 | 0.00 | 0.00 | 43 | 1016.0 |
| 20260504000032 | 75 | 203 | 7.0 | 12.0 | 0.00 | 0.00 | 0.00 | 39 | 1016.0 |
| 20260503234558 | 75 | 153 | 8.0 | 13.0 | 0.00 | 0.00 | 0.00 | 39 | 1016.1 |
| 20260503233044 | 75 | 174 | 6.0 | 12.0 | 0.00 | 0.00 | 0.00 | 41 | 1016.1 |
| 20260503231536 | 75 | 146 | 9.0 | 16.0 | 0.00 | 0.00 | 0.00 | 40 | 1016.3 |
| 20260503230035 | 75 | 142 | 6.0 | 10.0 | 0.00 | 0.00 | 0.00 | 39 | 1016.7 |
| 20260503224533 | 76 | 141 | 7.0 | 11.0 | 0.00 | 0.00 | 0.00 | 37 | 1016.8 |
| 20260503223039 | 77 | 152 | 8.0 | 14.0 | 0.00 | 0.00 | 0.00 | 36 | 1016.8 |
| 20260503221538 | 75 | 152 | 8.0 | 12.0 | 0.00 | 0.00 | 0.00 | 38 | 1017.0 |
| 20260503220032 | 75 | 165 | 5.0 | 13.0 | 0.00 | 0.00 | 0.00 | 40 | 1016.8 |
| 20260503214534 | 77 | 209 | 6.0 | 15.0 | 0.00 | 0.00 | 0.00 | 37 | 1017.2 |
| 20260503213037 | 78 | 160 | 9.0 | 13.0 | 0.00 | 0.00 | 0.00 | 39 | 1017.6 |
| 20260503211539 | 77 | 188 | 5.0 | 14.0 | 0.00 | 0.00 | 0.00 | 37 | 1017.8 |
| 20260503210036 | 76 | 199 | 7.0 | 14.0 | 0.00 | 0.00 | 0.00 | 39 | 1018.2 |
| 20260503204536 | 76 | 139 | 7.0 | 15.0 | 0.00 | 0.00 | 0.00 | 41 | 1018.5 |
| 20260503203046 | 75 | 206 | 9.0 | 16.0 | 0.00 | 0.00 | 0.00 | 38 | 1018.8 |
| 20260503201533 | 75 | 136 | 9.0 | 14.0 | 0.00 | 0.00 | 0.00 | 36 | 1018.9 |
| 20260503200032 | 76 | 135 | 4.0 | 10.0 | 0.00 | 0.00 | 0.00 | 38 | 1019.3 |
| 20260503194537 | 74 | 165 | 8.0 | 14.0 | 0.00 | 0.00 | 0.00 | 38 | 1019.6 |
| 20260503193035 | 74 | 148 | 7.0 | 14.0 | 0.00 | 0.00 | 0.00 | 41 | 1019.8 |
| 20260503191536 | 74 | 120 | 5.0 | 12.0 | 0.00 | 0.00 | 0.00 | 37 | 1019.9 |
| 20260503190034 | 74 | 154 | 7.0 | 16.0 | 0.00 | 0.00 | 0.00 | 37 | 1020.2 |
| 20260503184538 | 73 | 136 | 7.0 | 17.0 | 0.00 | 0.00 | 0.00 | 36 | 1020.4 |
| 20260503183034 | 73 | 163 | 5.0 | 13.0 | 0.00 | 0.00 | 0.00 | 39 | 1020.7 |
| 20260503181536 | 73 | 208 | 4.0 | 14.0 | 0.00 | 0.00 | 0.00 | 37 | 1021.0 |
| 20260503180035 | 73 | 184 | 7.0 | 12.0 | 0.00 | 0.00 | 0.00 | 38 | 1021.4 |
| 20260503174535 | 72 | 176 | 6.0 | 13.0 | 0.00 | 0.00 | 0.00 | 38 | 1021.5 |
| 20260503173031 | 72 | 134 | 8.0 | 13.0 | 0.00 | 0.00 | 0.00 | 43 | 1021.9 |
| 20260503171541 | 71 | 144 | 9.0 | 15.0 | 0.00 | 0.00 | 0.00 | 45 | 1022.1 |
| 20260503081537 | 48 | 0 | 0.0 | 1.0 | 0.00 | 0.01 | 0.00 | 93 | 1021.5 |
| 20260503071551 | 49 | 0 | 0.0 | 0.0 | 0.00 | 0.01 | 0.00 | 89 | 1021.8 |
| 20260503054549 | 50 | 0 | 0.0 | 0.0 | 0.00 | 0.01 | 0.00 | 90 | 1022.1 |
| 20260503053036 | 50 | 0 | 0.0 | 0.0 | 0.00 | 0.01 | 0.00 | 89 | 1022.1 |
| 20260503051536 | 51 | 0 | 0.0 | 0.0 | 0.00 | 0.01 | 0.00 | 87 | 1021.9 |
| 20260503050039 | 51 | 0 | 0.0 | 0.0 | 0.00 | 0.01 | 0.00 | 87 | 1022.0 |
| 20260503044533 | 51 | 0 | 0.0 | 0.0 | 0.00 | 0.01 | 0.01 | 88 | 1021.9 |
| 20260503043036 | 52 | 0 | 0.0 | 1.0 | 0.00 | 0.01 | 0.01 | 87 | 1022.1 |
| 20260503041539 | 53 | 0 | 0.0 | 1.0 | 0.00 | 0.01 | 0.01 | 82 | 1022.1 |